• Join FlightAware (Why Join?)
  • Login
  • US Flag 
Gobble Gobble! 
07:13AM EST


 

Airport Tracker/Info


-or-


 

Live Flight TrackerFlight Track Log ✈ CTL16 ✈ 11-Apr-2013 ✈ KHAO - KBKL

Flight Track Log - Related Links

Times and Time Zones

All times are in EDT time to prevent confusion due to time zone crossing. See the CTL16 flight status page for this flight to view local times or setup timezone preferences in your user account.

Time Position Orientation Groundspeed Altitude Reporting Facility
EDT Latitude Longitude Course Direction KTS MPH feet Rate Location/Type
08:59PM 39.3667 -84.5000 142° Southeast 97 112 1,200  Level Cincinnati TRACON
08:59PM 39.3500 -84.4833 142° Southeast 110 127 1,800 960 Climbing Cincinnati TRACON
09:00PM 39.3500 -84.4333 90° East 141 162 2,700 960 Climbing Cincinnati TRACON
09:01PM 39.3514 -84.4061 86° East 152 175 3,400 1,020 Climbing Indianapolis Center
09:01PM 39.3694 -84.3878 38° Northeast 147 169 4,000 1,020 Climbing Indianapolis Center
09:02PM 39.3808 -84.3719 47° Northeast 141 162 4,500 660 Climbing Indianapolis Center
09:02PM 39.3994 -84.3511 41° Northeast 144 166 4,700 540 Climbing Indianapolis Center
09:03PM 39.4108 -84.3344 49° Northeast 144 166 5,100 360 Climbing Indianapolis Center
09:03PM 39.4303 -84.3094 45° Northeast 162 186 5,100  Level Indianapolis Center
09:04PM 39.4439 -84.2886 50° Northeast 159 183 5,100  Level Indianapolis Center
09:04PM 39.4628 -84.2678 40° Northeast 187 215 5,100  Level Indianapolis Center
09:05PM 39.4822 -84.2411 47° Northeast 176 203 5,100  Level Indianapolis Center
09:05PM 39.5003 -84.2186 44° Northeast 190 219 5,100 -120 Level Indianapolis Center
09:06PM 39.5192 -84.1931 46° Northeast 184 212 5,000  Descending Indianapolis Center
09:06PM 39.5353 -84.1719 45° Northeast 185 213 5,100  Climbing Indianapolis Center
09:07PM 39.5556 -84.1461 44° Northeast 184 212 5,000 -120 Descending Indianapolis Center
09:07PM 39.5817 -84.1156 42° Northeast 183 211 5,000  Level Indianapolis Center
09:08PM 39.5933 -84.1003 45° Northeast 184 212 5,000  Level Indianapolis Center
09:08PM 39.6144 -84.0739 44° Northeast 181 208 5,000  Level Indianapolis Center
09:09PM 39.6303 -84.0567 40° Northeast 181 208 5,000  Level Indianapolis Center
09:09PM 39.6533 -84.0300 42° Northeast 181 208 5,000  Level Indianapolis Center
09:10PM 39.6672 -84.0106 47° Northeast 181 208 5,000  Level Indianapolis Center
09:10PM 39.6864 -83.9828 48° Northeast 177 204 5,000 60 Level Indianapolis Center
09:11PM 39.7081 -83.9564 43° Northeast 179 206 5,100  Climbing Indianapolis Center
09:11PM 39.7233 -83.9389 41° Northeast 176 203 5,000 -120 Descending Indianapolis Center
09:12PM 39.7453 -83.9125 43° Northeast 179 206 5,000 60 Level Indianapolis Center
09:12PM 39.7600 -83.8972 39° Northeast 177 204 5,100  Climbing Indianapolis Center
09:13PM 39.7836 -83.8719 39° Northeast 177 204 5,000 -120 Descending Indianapolis Center
09:13PM 39.7992 -83.8508 46° Northeast 181 208 5,000  Level Indianapolis Center
09:14PM 39.8192 -83.8253 44° Northeast 178 205 5,000  Level Indianapolis Center
09:14PM 39.8358 -83.8067 41° Northeast 180 207 5,000  Level Indianapolis Center
09:15PM 39.8581 -83.7806 42° Northeast 181 208 5,000  Level Indianapolis Center
09:15PM 39.8728 -83.7622 44° Northeast 183 211 5,000 60 Level Indianapolis Center
09:16PM 39.8969 -83.7375 38° Northeast 181 208 5,100  Climbing Indianapolis Center
09:16PM 39.9114 -83.7208 42° Northeast 181 208 5,000 -120 Descending Indianapolis Center
09:17PM 39.9342 -83.6900 46° Northeast 183 211 5,000  Level Indianapolis Center
09:17PM 39.9486 -83.6739 41° Northeast 183 211 5,000 60 Level Indianapolis Center
09:18PM 39.9744 -83.6489 37° Northeast 182 209 5,100 60 Climbing Indianapolis Center
09:19PM 39.9939 -83.6278 40° Northeast 181 208 5,100 -120 Level Indianapolis Center
09:19PM 40.0131 -83.6042 43° Northeast 182 209 5,000 -120 Descending Indianapolis Center
09:20PM 40.0306 -83.5833 42° Northeast 183 211 5,000  Level Indianapolis Center
09:20PM 40.0519 -83.5606 39° Northeast 182 209 5,000  Level Indianapolis Center
09:21PM 40.0689 -83.5444 36° Northeast 179 206 5,000 60 Level Indianapolis Center
09:21PM 40.0933 -83.5222 35° Northeast 180 207 5,100  Climbing Indianapolis Center
09:22PM 40.1117 -83.5061 34° Northeast 179 206 5,000  Descending Indianapolis Center
09:22PM 40.1353 -83.4836 36° Northeast 181 208 5,100  Climbing Indianapolis Center
09:23PM 40.1528 -83.4594 47° Northeast 191 220 5,000 -120 Descending Indianapolis Center
09:23PM 40.1719 -83.4342 45° Northeast 184 212 5,000 60 Level Indianapolis Center
09:24PM 40.1942 -83.4044 46° Northeast 185 213 5,100 60 Climbing Indianapolis Center
09:24PM 40.2094 -83.3867 42° Northeast 186 214 5,100  Level Indianapolis Center
09:25PM 40.2311 -83.3569 46° Northeast 181 208 5,100 -120 Level Indianapolis Center
09:25PM 40.2453 -83.3397 43° Northeast 184 212 5,000 -120 Descending Indianapolis Center
09:26PM 40.2750 -83.2994 46° Northeast 180 207 5,000  Level Indianapolis Center
09:26PM 40.2878 -83.2853 40° Northeast 182 209 5,000  Level Indianapolis Center
09:27PM 40.3142 -83.2494 46° Northeast 177 204 5,000 60 Level Indianapolis Center
09:27PM 40.3242 -83.2403 35° Northeast 180 207 5,100  Climbing Indianapolis Center
09:28PM 40.3583 -83.1972 44° Northeast 174 200 5,000  Descending Indianapolis Center
09:29PM 40.3922 -83.1556 43° Northeast 167 192 5,100  Climbing Indianapolis Center
09:30PM 40.4269 -83.1092 45° Northeast 174 200 5,100 -60 Level Indianapolis Center
09:31PM 40.4636 -83.0658 42° Northeast 176 203 5,000 -60 Descending Indianapolis Center
09:32PM 40.4978 -83.0219 44° Northeast 172 198 5,000  Level Indianapolis Center
09:34PM 40.5303 -82.9783 46° Northeast 165 190 5,100  Climbing Indianapolis Center
09:35PM 40.5489 -82.9200 67° East 169 194 5,100 -60 Level Indianapolis Center
09:36PM 40.5397 -82.8675 103° East 148 170 5,000  Descending Indianapolis Center
09:37PM 40.5342 -82.8175 98° East 145 167 5,100  Climbing Indianapolis Center
09:38PM 40.5644 -82.7708 49° Northeast 168 193 5,100 -60 Level Indianapolis Center
09:39PM 40.5997 -82.7258 44° Northeast 173 199 5,000 -60 Descending Indianapolis Center
09:40PM 40.6364 -82.6828 42° Northeast 176 203 5,000  Level Indianapolis Center
09:41PM 40.6794 -82.6286 44° Northeast 181 208 5,100  Climbing Indianapolis Center
09:42PM 40.7189 -82.5844 40° Northeast 184 212 5,100  Level Indianapolis Center
09:43PM 40.7633 -82.5322 42° Northeast 182 209 5,200 60 Climbing Cleveland Center